Flag for Germany

Past Weather in Altötting, Bavaria, Germany — Yesterday and Last 2 Weeks

Now
65 °F

Mild.


Feels Like: 65 °F
Forecast: 67 / 44 °F
Wind: 7 mph from East

Location: Ranshofen
Current Time: Sep 18, 2020 at 8:22:12 pm
Latest Report: Sep 18, 2020 at 6:00 pm
Visibility: N/A
Pressure30.21 "Hg
Humidity: 42%
Dew Point: 41 °F
Location of AltöttingLocation

Past Weather in Altötting — Graph

°F

Altötting Temperature Yesterday

Maximum temperature yesterday: 70 °F (at 1:00 pm)
Minimum temperature yesterday: 61 °F (at 7:00 am)
Average temperature yesterday: 65 °F

High & Low Weather Summary for the Past Weeks

 TemperatureHumidityPressure
High84 °F (Sep 5, 5:00 pm)100% (Sep 8, 8:00 am)30.38 "Hg (Sep 8, 8:00 am)
Low49 °F (Sep 9, 5:00 am)39% (Sep 18, 5:00 pm)29.90 "Hg (Sep 5, 5:00 pm)
Average64 °F79%30.16 "Hg
* Reported Sep 3 6:00 pm — Sep 18 6:00 pm, Altötting. Weather by CustomWeather, © 2020

Note: Actual official high and low records may vary slightly from our data, if they occured in-between our weather recording intervals... More about our weather records

Altötting Weather History for the Previous 24 Hours

Scroll right to see more
 ConditionsComfort  
Time TempWeatherWind HumidityBarometerVisibility
6:00 pm
Fri, Sep 18
65 °FMild.7 mph42%30.21 "HgN/A
5:00 pm66 °FMild.7 mph39%30.22 "HgN/A
4:00 pm66 °FMild.8 mph40%30.22 "HgN/A
3:00 pm66 °FMild.8 mph45%30.23 "HgN/A
1:00 pm63 °FMild.8 mph52%30.26 "HgN/A
12:00 pm61 °FRefreshingly cool.9 mph51%30.27 "HgN/A
11:00 am60 °FRefreshingly cool.9 mph56%30.27 "HgN/A
10:00 am58 °FRefreshingly cool.8 mph58%30.28 "HgN/A
9:00 am56 °FCool.7 mph63%30.27 "HgN/A
8:00 am54 °FCool.8 mph67%30.27 "HgN/A
6:00 am54 °FCool.6 mph80%30.25 "HgN/A
5:00 am54 °FCool.5 mph84%30.24 "HgN/A
4:00 am56 °FCool.7 mph80%30.24 "HgN/A
2:00 am58 °FCool.5 mph79%30.24 "HgN/A
1:00 am59 °FCool.5 mph77%30.24 "HgN/A
12:00 am61 °FCool.5 mph73%30.24 "HgN/A
11:00 pm
Thu, Sep 17
62 °FCool.3 mph74%30.25 "HgN/A
10:00 pm62 °FMild.5 mph74%30.24 "HgN/A
9:00 pm63 °FMild.6 mph77%30.23 "HgN/A
8:00 pm64 °FMild.6 mph79%30.21 "HgN/A
Weather by CustomWeather, © 2020

See weather overview